Regional Weather Roundup
Issued by NWS

Home | Current Version | Previous Version | Text Only | Print | Product List | Glossary Off
Versions: 1 2 3 4 5 6 7 8 9 10 11 12 13 14 15 16 17 18 19 20 21 22 23 24 25 26 27 28 29 30 31 32 33 34 35 36 37 38 39 40 41 42 43 44 45 46 47 48 49 50

000
ASUS43 KOAX 301410
RWRNE

WEATHER ROUNDUP FOR NEBRASKA
NATIONAL WEATHER SERVICE OMAHA NE
900 AM CDT THU OCT 30 2014

NOTES: SATELLITE DATA IS BEING USED TO AUGMENT CLOUD COVER ABOVE
       12000 FEET.
       "FAIR" INDICATES FEW OR NO CLOUDS BELOW 12,000 FEET WITH NO
       SIGNIFICANT WEATHER AND/OR OBSTRUCTIONS TO VISIBILITY.

  * THESE STATIONS DO NOT REPORT WEATHER SUCH AS RAIN...SNOW OR FOG.

NEZ001>004-019>022-054>056-301500-
NEBRASKA PANHANDLE

CITY           SKY/WX    TMP DP  RH WIND       PRES   REMARKS
SCOTTSBLUFF    CLEAR     35  27  72 NW6       30.32R WCI  30
ALLIANCE       FLURRIES  31  27  85 NW7       30.28R WCI  24
CHADRON        CLEAR     37  28  70 W5        30.28R WCI  33
KIMBALL        CLEAR     33  27  76 NW8       30.31R WCI  27
SIDNEY         CLEAR     38  27  64 NW12      30.31R WCI  30
$$

NEZ057>060-069>072-079>082-301500-
SOUTHWEST NEBRASKA

CITY           SKY/WX    TMP DP  RH WIND       PRES   REMARKS
NORTH PLATTE   CLEAR     34  28  79 NW6       30.23R WCI  29
IMPERIAL       CLEAR     42  27  55 NW13      30.27R
LEXINGTON      CLEAR     42  31  66 NW15      30.19R
MCCOOK         CLEAR     40  27  59 W15       30.23R WCI  32
OGALLALA       CLEAR     39  31  72 W8        30.27R WCI  34
$$

NEZ005>010-023>029-035>040-094-301500-
NORTH CENTRAL NEBRASKA

CITY           SKY/WX    TMP DP  RH WIND       PRES   REMARKS
VALENTINE      CLEAR     39  32  76 NW7       30.21R WCI  34
AINSWORTH      CLEAR     44  33  67 NW17G23   30.17R
BROKEN BOW     CLEAR     48  34  58 NW20      30.16R
O`NEILL        CLEAR     46  38  72 NW16      30.12R
ORD            CLEAR     35  30  82 NW6       30.14R WCI  30
THEDFORD       CLEAR     45  34  66 NW13      30.21R
$$

NEZ041-046>049-061>064-073>077-083>087-301500-
SOUTH CENTRAL NEBRASKA

CITY           SKY/WX    TMP DP  RH WIND       PRES   REMARKS
GRAND ISLAND   CLEAR     42  34  73 W9        30.14R
AURORA         CLEAR     45  33  62 NW13      30.12R
HASTINGS       CLEAR     47  34  60 NW13      30.13R
HEBRON         SUNNY     47  35  63 W7        30.12R
HOLDREGE       CLEAR     44  31  61 NW9       30.17R
KEARNEY *      CLEAR     43  32  65 W9        30.16R
YORK           CLEAR     45  37  76 NW13      30.10R
$$

NEZ011>018-030>034-042>045-301500-
NORTHEAST NEBRASKA

CITY           SKY/WX    TMP DP  RH WIND       PRES   REMARKS
NORFOLK        CLEAR     45  36  70 W13       30.07R
ALBION         CLEAR     45  35  66 NW12      30.10R
BLAIR          SUNNY     44  35  68 NW12      30.03R
COLUMBUS *       N/A    N/A N/A N/A MISG        N/A
FREMONT        SUNNY     43  37  78 W8        30.06R
TEKAMAH        SUNNY     42  34  73 NW3       30.04R
WAYNE          CLEAR     44  37  74 NW12      30.06R
$$

NEZ050>053-065>068-078-088>093-301500-
SOUTHEAST NEBRASKA

CITY           SKY/WX    TMP DP  RH WIND       PRES   REMARKS
LINCOLN        SUNNY     49  36  61 NW8       30.08R
OMAHA EPPLEY   MOSUNNY   43  36  76 N3        30.05R
BEATRICE       SUNNY     41  37  85 W3        30.08R
FALLS CITY     SUNNY     44  39  82 NW9       30.02R
NEBRASKA CITY  SUNNY     44  35  70 NW8       30.04R
PLATTSMOUTH    SUNNY     42  35  76 W9        30.03R
$$

NEZ044-045-051>053-067-301500-
OMAHA AREA

CITY           SKY/WX    TMP DP  RH WIND       PRES   REMARKS
OMAHA EPPLEY   MOSUNNY   43  36  76 N3        30.05R
BLAIR          SUNNY     44  35  68 NW12      30.03R
FREMONT        SUNNY     43  37  78 W8        30.06R
MILLARD        SUNNY     45  35  67 NW7       30.04R
OFFUTT AFB     SUNNY     42  36  81 NW3       30.03R
PLATTSMOUTH    SUNNY     42  35  76 W9        30.03R
WAHOO          FAIR      47  36  63 NW9       30.06R
$$



USA.gov is the U.S. government's official web portal to all federal, state and local government web resources and services.